Regional Weather Roundup
Issued by NWS

Home | Current Version | Previous Version | Text Only | Print | Product List | Glossary Off
Versions: 1 2 3 4 5 6 7 8 9 10 11 12 13 14 15 16 17 18 19 20 21 22 23 24 25 26 27 28 29 30 31 32 33 34 35 36 37 38 39 40 41 42 43 44 45 46 47 48 49 50

000
ASUS43 KLSX 052359
RWRMO

WEATHER SUMMARY FOR MISSOURI
NATIONAL WEATHER SERVICE SPRINGFIELD MO
700 PM CDT TUE MAY 05 2015

NOTE: "FAIR" INDICATES FEW OR NO CLOUDS BELOW 12,000 FEET WITH NO
       SIGNIFICANT WEATHER AND/OR OBSTRUCTIONS TO VISIBILITY.
       CURRENT SKY AND/OR WEATHER CONDITIONS ARE NOT AVAILABLE FOR
       CHILLICOTHE AND FARMINGTON.

MOZ001>031-035>038-043-044-053-054-060100-
...NORTHERN AND WESTERN MISSOURI...

CITY           SKY/WX    TMP DP  RH WIND       PRES   REMARKS
KANSAS CTY INT CLOUDY    75  58  55 SE17      30.01R
6HR MIN TEMP:  75; 6HR MAX TEMP:  80;

KANSAS C DTWN  CLOUDY    77  58  51 SE14G20   30.00R
6HR MIN TEMP:  77; 6HR MAX TEMP:  83;

LEE`S SUMMIT   CLOUDY    73  62  68 SE8       30.02S
6HR MIN TEMP:  71; 6HR MAX TEMP:  81; 6HR PCP:  0.01;

ST JOSEPH      CLOUDY    78  57  48 SE7       29.98F
6HR MIN TEMP:  75; 6HR MAX TEMP:  80; 6HR PCP: TRACE;

CHILLICOTHE      N/A     76  58  53 SE9       30.04R
6HR MIN TEMP:  76; 6HR MAX TEMP:  83;

KIRKSVILLE     PTSUNNY   74  60  61 S8        30.06S
6HR MIN TEMP:  74; 6HR MAX TEMP:  81;


$$
MOZ066>068-077>081-088>096-101>105-060100-
...SOUTHWEST MISSOURI...

CITY           SKY/WX    TMP DP  RH WIND       PRES   REMARKS
SPRINGFIELD    PTSUNNY   78  55  44 SE16G25   30.04F
6HR MIN TEMP:  75; 6HR MAX TEMP:  81; 6HR PCP: TRACE;

JOPLIN         MOSUNNY   76  57  51 SE8       30.00F
6HR MIN TEMP:  74; 6HR MAX TEMP:  81; 6HR PCP: TRACE;


$$
MOZ032>034-039>042-045>050-055>058-069>072-060100-
...CENTRAL MISSOURI...

CITY           SKY/WX    TMP DP  RH WIND       PRES   REMARKS
COLUMBIA       MOSUNNY   73  64  73 E3        30.07S
6HR MIN TEMP:  68; 6HR MAX TEMP:  82; 6HR PCP:  0.12;

JEFFERSON CITY MOSUNNY   76  65  68 E8        30.05F
6HR MIN TEMP:  67; 6HR MAX TEMP:  84; 6HR PCP:  0.70;

ROLLA          MOSUNNY   77  57  50 SE15      30.08S
6HR MIN TEMP:  73; 6HR MAX TEMP:  81; 6HR PCP:  0.01;

SEDALIA        CLOUDY    71  60  68 NE5       30.06S
6HR MIN TEMP:  71; 6HR MAX TEMP:  83; 6HR PCP: TRACE;

OSAGE BEACH    SUNNY     79  54  41 S8G16     30.06R

$$
MOZ051-052-059>065-060100-
...EAST CENTRAL MISSOURI...

CITY           SKY/WX    TMP DP  RH WIND       PRES   REMARKS
ST LOUIS INTL  MOCLDY    81  55  40 SW5       30.10F
6HR MIN TEMP:  80; 6HR MAX TEMP:  85; 6HR PCP: TRACE;

SPIRIT OF STL  PTCLDY    80  56  43 S6        30.08S
6HR MIN TEMP:  79; 6HR MAX TEMP:  84;

ST CHARLES     MOCLDY    79  58  48 S10       30.08S
6HR MIN TEMP:  79; 6HR MAX TEMP:  85;


$$
MOZ072>076-082>087-097>100-106>115-060100-
...SOUTH CENTRAL AND SOUTHEAST MISSOURI...

CITY           SKY/WX    TMP DP  RH WIND       PRES   REMARKS
CAPE GIRARDEAU MOCLDY    76  62  62 E5        30.11F
6HR MIN TEMP:  72; 6HR MAX TEMP:  84; 6HR PCP: TRACE;

FARMINGTON     CLEAR     77  57  50 SE10G17   30.16R
6HR MIN TEMP:  75; 6HR MAX TEMP:  82;

POPLAR BLUFF   CLOUDY    79  55  43 S6        30.09S
6HR MIN TEMP:  78; 6HR MAX TEMP:  84;

WEST PLAINS    MOSUNNY   77  51  40 S9        30.11F
6HR MIN TEMP:  76; 6HR MAX TEMP:  80;


$$



USA.gov is the U.S. government's official web portal to all federal, state and local government web resources and services.